Content
SEND FEEDBACK

Daily
Averages
Monthly
Summary
France

LILLE, FRANCE


Home > Europe > France
Elevation: 171 feet     Latitude: 50 34N     Longitude: 003 06E

WEATHER
 
SELECT A DAY
Number of Records: 280,301;   Date Range: 7/1/96 - 12/17/14
 
SHARE

PRINT THIS DATA

[ ← Previous Day ]
WEATHER ALMANAC - JANUARY 31, 2013
[ Next Day → ]
[ °C ]   °F
Weather ElementAverageHighLow
Temperature46.5 °F51.8 °F (2:00 pm)42.8 °F (6:00 am)
Dewpoint40.6 °F45 °F (1:00 pm)37.4 °F (8:30 am)
Humidity79.4 %93 % (12:00 pm)64 % (7:00 pm)
Barometer29.99 in30.12 in (2:30 am)29.92 in (11:00 am)
Wind Speed19.9 mph31.1 mph (2:00 pm)
Wind Gust44.9 mph (2:00 pm)
Weather ElementAverage
Visibility6.7 mi
Wind DirectionWSW (248.3 °)

Weather ElementTotal
Precipitation---
Heating Degree Days17.7 (Base 65)
Averaged from 48 records on January 31, 2013
WEATHER CONDITIONS BREAKOUT
WIND DIRECTION BREAKOUT
WEATHER BY HOUR - JANUARY 31, 2013
[ °C ]   °F
Local TimeTemperatureDewpointHumidityBarometerVisibilityWind DirectionWind SpeedGust SpeedPrecipitationEventsConditions
12:30 AM46.4 °F41.0 °F81 %30.06 in6.2 miWest (270°)19.6 mphMostly Cloudy
1:00 AM46.0 °F41.0 °F75 %30.11 in9.0 miWest (270°)16.1 mphScattered Clouds
1:00 AM46.4 °F41.0 °F81 %30.09 in6.2 miWest (270°)16.1 mphMostly Cloudy
1:30 AM46.4 °F41.0 °F81 %30.09 in6.2 miWest (270°)18.4 mphMostly Cloudy
2:00 AM44.6 °F41.0 °F87 %30.09 in6.2 miWest (270°)15.0 mphMostly Cloudy
2:30 AM44.6 °F41.0 °F87 %30.12 in6.2 miWest (260°)13.8 mphMostly Cloudy
3:00 AM46.4 °F41.0 °F81 %30.12 in6.2 miWSW (250°)11.5 mphOvercast
3:30 AM46.4 °F41.0 °F81 %30.09 in6.2 miWSW (250°)10.4 mphOvercast
4:00 AM46.4 °F41.0 °F81 %30.09 in6.2 miWSW (250°)12.7 mphMostly Cloudy
4:30 AM46.4 °F41.0 °F81 %30.09 in6.2 miWSW (240°)12.7 mphMostly Cloudy
5:00 AM46.4 °F41.0 °F81 %30.06 in6.2 miSW (230°)13.8 mphMostly Cloudy
5:30 AM44.6 °F39.2 °F81 %30.06 in6.2 miSSW (210°)11.5 mphMostly Cloudy
6:00 AM42.8 °F39.2 °F87 %30.04 in6.2 miSW (220°)13.8 mphMostly Cloudy
6:30 AM42.8 °F39.2 °F87 %30.04 in6.2 miSW (220°)17.3 mphMostly Cloudy
7:00 AM43.0 °F38.0 °F78 %30.03 in12.0 miSSW (200°)17.3 mphPartly Cloudy
7:00 AM42.8 °F39.2 °F87 %30.01 in6.2 miSSW (200°)16.1 mphMostly Cloudy
7:30 AM42.8 °F39.2 °F87 %30.01 in6.2 miSSW (200°)19.6 mphMostly Cloudy
8:30 AM42.8 °F37.4 °F81 %29.98 in6.2 miSSW (210°)19.6 mphMostly Cloudy
9:00 AM42.8 °F37.4 °F81 %29.98 in6.2 miSSW (210°)20.7 mphMostly Cloudy
9:30 AM42.8 °F37.4 °F81 %29.98 in6.2 miSSW (210°)21.9 mphMostly Cloudy
10:00 AM42.8 °F39.2 °F87 %29.95 in6.2 miSW (220°)21.9 mph34.5 mphMostly Cloudy
10:30 AM44.6 °F39.2 °F81 %29.95 in6.2 miSSW (210°)26.5 mphMostly Cloudy
11:00 AM44.6 °F41.0 °F87 %29.92 in6.2 miSW (220°)25.3 mphRainLight Rain
11:30 AM44.6 °F41.0 °F87 %29.95 in4.3 miSW (230°)21.9 mphRainLight Rain
12:00 PM44.6 °F42.8 °F93 %29.95 in2.8 miWSW (240°)20.7 mphRainLight Rain
1:00 PM49.0 °F45.0 °F82 %29.93 in19.0 miWSW (250°)23.0 mphRainLight Rain
1:00 PM50.0 °F44.6 °F82 %29.92 in6.2 miWSW (250°)23.0 mphMostly Cloudy
1:30 PM50.0 °F44.6 °F82 %29.92 in6.2 miWest (270°)26.5 mphMostly Cloudy
2:00 PM51.8 °F42.8 °F71 %29.92 in6.2 miWest (270°)31.1 mph44.9 mphMostly Cloudy
2:30 PM51.8 °F42.8 °F71 %29.92 in6.2 miWest (270°)28.8 mph42.6 mphMostly Cloudy
3:00 PM51.8 °F41.0 °F67 %29.92 in6.2 miWest (280°)31.1 mphMostly Cloudy
3:30 PM51.8 °F41.0 °F67 %29.92 in6.2 miWest (270°)28.8 mphScattered Clouds
4:05 PM50.0 °F39.2 °F66 %29.92 in6.2 miWest (270°)31.1 mphScattered Clouds
4:30 PM50.0 °F39.2 °F66 %29.92 in6.2 miWest (270°)28.8 mphScattered Clouds
5:00 PM50.0 °F41.0 °F71 %29.92 in6.2 miWest (270°)23.0 mph35.7 mphScattered Clouds
5:30 PM48.2 °F41.0 °F76 %29.95 in6.2 miWest (270°)21.9 mphScattered Clouds
6:00 PM48.2 °F39.2 °F71 %29.95 in6.2 miWest (270°)20.7 mphMostly Cloudy
6:30 PM48.2 °F39.2 °F71 %29.95 inWest (260°)20.7 mphClear
7:00 PM47.0 °F39.0 °F64 %29.98 in12.0 miWest (270°)18.4 mphClear
7:00 PM46.4 °F39.2 °F76 %29.95 inWest (270°)18.4 mphClear
7:30 PM46.4 °F39.2 °F76 %29.98 inWest (260°)19.6 mphClear
8:00 PM46.4 °F41.0 °F81 %29.98 inWest (260°)19.6 mphClear
8:30 PM46.4 °F41.0 °F81 %29.98 inWest (260°)19.6 mphClear
9:00 PM46.4 °F41.0 °F81 %29.98 in6.2 miWest (260°)19.6 mphMostly Cloudy
9:30 PM46.4 °F41.0 °F81 %29.98 in6.2 miWest (260°)17.3 mphMostly Cloudy
10:00 PM48.2 °F41.0 °F76 %29.98 in6.2 miWest (260°)17.3 mphMostly Cloudy
10:30 PM46.4 °F42.8 °F87 %29.98 in6.2 miWest (260°)18.4 mphMostly Cloudy
11:00 PM46.4 °F41.0 °F81 %29.98 in6.2 miWest (260°)15.0 mphMostly Cloudy
Hourly data recorded from LFQQ, located miles away from Lille, France







STORIES FROM OUR PARTNERS